#timestamp,LO_Frequency,Hit,StdDev 
1532145615.3,286047000.3,N
1532145635.1,286047002.7,N
1532145655.8,286047000.2,N
1532145675.7,286046999.7,N
1532145695.5,286047000.3,N
1532145715.3,286047002.3,N
1532145735.2,286047002.6,N
1532145755.0,286046999.7,N
1532145755.9,286046999.7,N
1532145775.8,286047000.5,N
1532145795.6,286046999.8,N
1532145815.4,286046999.7,N
1532145835.3,286047002.6,N
1532145855.1,286047001.4,N
1532145875.8,286047001.4,N
1532145895.7,286047002.1,N
1532145915.5,286047001.8,N
1532145935.4,286047001.3,N
1532145955.2,286047001.6,N
1532145975.0,286047001.8,N
1532145975.9,286047001.8,N
1532145995.8,286047002.2,N
1532146015.6,286047002.3,N
1532146035.4,286047001.6,N
1532146085.8,286047006.0,E
1532146095.7,286047002.2,N
1532146115.6,286046996.6,P
1532146135.4,286046997.7,N
1532146155.2,286046995.3,N
1532146175.1,286046995.9,N
1532146176.0,286046995.9,N
1532146195.8,286046997.7,N
1532146215.6,286046997.2,N
1532146235.5,286046995.0,N
1532146255.3,286046997.6,N
1532146275.2,286046996.8,N
1532146295.9,286046997.1,N
1532146315.7,286046998.0,N
1532146335.6,286046997.7,N
1532146355.4,286046997.4,N
1532146375.2,286046997.4,N
1532146395.1,286046997.3,N
1532146396.0,286046997.3,N
1532146415.8,286046996.5,N
1532146435.7,286046999.6,N
1532146455.5,286046997.6,N
1532146475.3,286046996.5,N
1532146495.2,286046997.3,N
1532146515.0,286046999.3,N
1532146515.9,286046999.3,N
1532146535.7,286046997.1,N
1532146555.6,286046997.5,N
1532146575.4,286046997.5,N
1532146595.3,286046997.4,N
1532146615.1,286046997.8,N
1532146616.0,286046997.8,N
1532146635.8,286046997.7,N
1532146655.7,286046996.8,Y
1532146675.5,286047000.5,P
1532146695.4,286046998.5,N
1532146715.2,286047000.8,N
1532146735.0,286047001.0,N
1532146735.9,286047001.0,N
1532146755.8,286047000.8,N
1532146775.6,286047000.8,N
1532146795.4,286047001.0,N
1532146815.3,286047000.9,N
1532146835.1,286047000.8,N
1532146885.9,286047000.6,E
1532146895.8,286047000.7,N
1532146915.7,286047001.2,P
1532146935.5,286046998.6,P
1532146955.3,286046999.4,N
1532146975.2,286046998.7,N
1532146995.9,286046999.6,N
1532147015.7,286046996.5,Y
1532147035.6,286046999.4,P
1532147055.4,286046999.4,P
1532147075.3,286046999.3,P
1532147095.1,286046998.3,Y
1532147115.8,286047001.1,P
1532147135.7,286047001.2,N
1532147155.5,286046999.5,N
1532147175.3,286046999.3,N
1532147195.2,286046998.3,N
1532147215.0,286046999.1,N
1532147215.9,286046999.1,N
1532147235.8,286046998.2,N
1532147255.6,286047001.2,N
1532147275.4,286047001.1,N
1532147295.3,286047011.9,Y
1532147315.1,286046998.1,P
1532147335.9,286047000.7,N
1532147355.7,286047000.1,N
1532147375.5,286046999.7,N
1532147395.2,286047000.4,N
1532147415.0,286046999.8,N
1532147415.9,286046999.8,N
1532147435.8,286047000.4,N
1532147455.6,286046999.0,N
1532147475.4,286047000.8,N
1532147495.3,286047000.9,N
1532147515.1,286046998.6,N
1532147535.8,286046999.3,N
1532147555.1,286046999.0,N
1532147556.0,286046999.0,N
1532147575.8,286046999.3,N
1532147595.6,286046998.3,N
1532147615.5,286046998.3,N
1532147635.3,286046998.1,N
1532147655.2,286046998.6,N
1532147675.9,286046998.1,N
1532147695.7,286047001.1,N
1532147715.6,286047001.2,N
1532147735.4,286046998.4,N
1532147755.2,286046998.3,N
1532147775.1,286046998.8,N
1532147776.0,286046998.8,N
1532147795.8,286046998.1,N
1532147815.7,286046999.9,N
1532147835.5,286047000.8,N
1532147855.3,286046998.1,N
1532147875.2,286047001.2,N
1532147895.0,286046998.7,N
1532147895.9,286046998.7,N
1532147915.8,286047000.7,N
1532147935.6,286047000.6,N
1532147955.4,286047000.7,N
1532147975.3,286047001.2,N
1532147995.1,286046998.1,N
1532148015.8,286046998.5,N
1532148035.7,286047000.7,N
1532148055.5,286046998.8,N
1532148075.3,286046998.5,N
1532148095.2,286046998.6,N
1532148115.0,286047001.0,N
1532148115.9,286047001.0,N
1532148135.8,286047000.9,N
1532148155.6,286047001.1,N
1532148175.4,286046998.1,N
1532148195.3,286046998.5,N
1532148215.1,286047001.2,N
1532148235.9,286047000.4,N
1532148255.7,286046998.8,N
1532148275.5,286046998.7,N
1532148295.4,286047000.4,N
1532148315.2,286047001.0,N
1532148335.0,286047001.2,N
1532148335.9,286047001.2,N
1532148355.8,286046999.9,N
1532148375.6,286047000.3,N
1532148395.5,286046998.7,N
1532148415.3,286046998.9,N
1532148435.1,286047000.3,N
1532148455.9,286046999.7,N
1532148475.7,286047001.7,N
1532148495.4,286047003.6,Y
1532148515.3,286047005.6,P
1532148535.1,286047005.6,N
1532148555.9,286047003.4,N
1532148575.7,286047006.0,N
1532148595.5,286047004.6,N
1532148615.4,286047007.2,Y
1532148635.2,286047000.0,P
1532148655.0,286047000.2,N
1532148656.0,286047000.2,N
1532148675.8,286047000.3,N
1532148695.6,286047001.0,N
1532148715.5,286047000.8,N
1532148735.3,286046998.2,N
1532148755.1,286046999.1,N
1532148775.9,286046998.4,N
1532148795.7,286046998.2,N
1532148815.5,286046998.3,N
1532148835.4,286046998.9,N
1532148855.2,286046999.3,N
1532148875.1,286046996.7,N
1532148876.0,286046996.7,N
1532148895.8,286046998.2,N
1532148915.6,286046998.1,N
1532148935.5,286046996.9,N
1532148955.3,286046997.0,N
1532148975.1,286046995.2,N
1532148995.9,286046995.7,N
1532149015.7,286046995.5,N
1532149035.6,286046997.5,N
1532149055.4,286046997.0,N
1532149075.2,286046996.7,N
1532149095.1,286046999.6,N
1532149096.0,286046999.6,N
1532149115.8,286046995.7,N
1532149135.6,286046995.1,N
1532149155.5,286046995.3,N
1532149175.3,286046995.1,N
1532149195.2,286046996.3,N
